Location: Writing-on-Stone Provincial Park
(49.0825°N, 111.6163°W)
Time: 11:54:41
(UTC-06:00)

Daily predictions for brighter satellites

Satellite Brightness Start Highest point End
(mag) Time Altitude Azimuth Time Altitude Azimuth Time Altitude Azimuth
Meteor 2-20 4.5 21:01:16 10° N 21:07:25 73° E 21:13:32 10° SSE
Resurs 01 Rocket 2.7 21:05:04 10° S 21:09:23 49° W 21:13:45 10° NNW
Helios 1A 3.0 21:06:16 10° SSE 21:10:31 83° ENE 21:14:48 10° NNW
Cosmos 1331 Rocket 4.2 21:05:16 10° SSW 21:10:36 84° WNW 21:15:57 10° NNE
SAR-Lupe-4 3.5 21:09:20 10° SSE 21:12:55 84° ENE 21:16:33 10° NNW
USA 234 3.6 21:08:28 10° SE 21:14:59 64° SW 21:21:31 10° WNW
ARGOS 4.4 21:12:18 10° ESE 21:16:39 26° ENE 21:21:01 10° N
ATLAS CENTAUR R/B 4.3 21:19:17 10° SW 21:19:58 10° SW 21:20:45 10° SSW
Cosmos 1408 2.7 21:16:26 10° N 21:20:08 58° ENE 21:23:46 10° SSE
BREEZE-M DEB (TANK) 3.5 21:17:22 10° WSW 21:20:25 55° SSE 21:28:21 10° E
Cosmos 1844 Rocket 4.5 21:16:48 10° N 21:20:40 19° NE 21:24:32 10° E
Cosmos 2360 4.2 21:15:12 10° SSW 21:20:53 70° ESE 21:26:37 10° NNE
ERBS 3.1 21:19:21 10° WNW 21:22:42 47° SW 21:26:03 10° SSE
ERS-1 Rocket 3.3 21:22:37 10° SE 21:27:28 50° ENE 21:32:19 10° N
Molniya-1 3.6 21:27:08 10° S 21:28:50 29° ESE 21:31:07 10° ENE
Cosmos 1455 2.8 21:25:32 10° SSW 21:29:17 60° WNW 21:33:03 10° N
Cosmos 2142 Rocket 4.4 21:23:19 10° S 21:29:23 72° E 21:35:33 10° NNE
SAR-Lupe-1 4.3 21:26:54 10° S 21:30:28 71° WSW 21:34:04 10° NNW
Cosmos 1869 3.2 21:29:54 10° S 21:33:50 83° E 21:37:49 10° NNE
Cosmos 220 Rocket 4.2 21:29:49 10° NNW 21:34:17 76° WSW 21:38:43 10° SSE
SeaSat 1 2.8 21:39:59 14° SE 21:44:02 53° NE 21:48:50 10° NNW
Cosmos 1992 Rocket 4.4 21:39:46 10° S 21:44:38 41° ESE 21:49:32 10° NE
Cosmos 1908 Rocket 4.2 21:41:20 10° N 21:45:24 37° ENE 21:48:14 17° SE
Cosmos 2026 Rocket 4.1 21:39:57 10° N 21:46:15 80° W 21:52:25 10° S
H-2A R/B 4.0 21:44:20 11° E 21:46:36 16° ENE 21:49:15 10° NNE
USA 186 4.3 21:45:42 10° SW 21:47:44 18° W 21:49:50 10° NW
Cosmos 1697 Rocket 4.1 21:43:14 10° WSW 21:48:35 42° NW 21:53:58 10° NNE
CENTAUR R/B 3.4 21:43:09 10° WSW 21:49:20 58° NW 21:56:28 10° NE
MetOp-A 4.2 21:49:41 14° SSE 21:54:14 63° ENE 21:59:33 10° N
Cosmos 1933 3.5 21:50:41 10° S 21:54:37 53° E 21:58:34 10° NNE
Abrixas rocket 2.5 21:53:00 10° SW 21:56:10 46° SSE 21:58:02 21° E
YAOGAN 6 2.7 21:54:41 12° S 21:58:00 78° WSW 22:01:39 10° NNW
Cosmos 1782 Rocket 4.5 21:55:20 10° N 21:59:15 32° ENE 22:01:21 21° ESE
Cosmos 1867 3.8 21:54:10 10° NW 21:59:37 62° NE 22:03:20 20° ESE
Okean 2 Rocket 4.4 21:55:49 10° NNE 21:59:38 26° ENE 22:01:36 19° ESE
Cosmos 2263 Rocket 2.2 21:56:07 10° NNW 22:01:43 84° WSW 22:06:05 17° SSE
COSMOS 2428 4.3 22:05:01 15° E 22:05:06 15° E 22:08:15 10° ENE
Meteor 1-29 4.0 22:02:24 10° N 22:05:49 48° WNW 22:09:10 10° SSW
Cosmos 1733 Rocket 3.5 22:02:44 10° NNW 22:07:09 63° W 22:11:33 10° S
H-2A R/B 2.7 22:04:41 21° ESE 22:07:29 38° ENE 22:12:04 10° N
Terra 3.3 22:05:46 17° E 22:07:58 23° ENE 22:11:43 10° N
Cosmos 1655 Rocket 4.4 22:02:02 10° NNW 22:08:25 69° W 22:14:43 10° S
Helios 1B rocket 3.6 22:04:54 10° N 22:08:50 44° WNW 22:12:44 10° SW
Cosmos 2322 Rocket 2.1 22:03:27 10° SSW 22:09:02 77° ESE 22:14:42 10° NNE
Lacrosse 4 Rocket 2.6 22:08:42 10° NW 22:12:41 37° WSW 22:16:01 14° S
Cosmos 1825 3.8 22:10:30 10° NNW 22:13:58 34° W 22:17:24 10° SSW
Cosmos 1862 4.2 22:12:15 10° NNW 22:16:09 48° W 22:19:52 11° SSW
Cosmos 1862 Rocket 3.6 22:12:17 10° SSW 22:16:46 82° W 22:21:17 10° N
Meteor 2-10 Rocket 3.8 22:11:53 11° S 22:17:26 62° E 22:23:09 10° NNE
SL-08 RB Rocket 3.9 22:16:00 26° SE 22:18:29 59° ENE 22:22:59 10° N
Cosmos 2360 Rocket 2.6 22:15:51 15° S 22:20:09 41° ESE 22:25:25 10° NE
USA 267 4.0 22:14:31 10° ENE 22:20:52 55° NNW 22:27:13 10° W
Cosmos 1980 Rocket 3.7 22:15:52 10° WSW 22:21:12 40° NW 22:26:35 10° NNE
GENESIS II 4.4 22:17:19 10° SSW 22:21:16 52° SE 22:25:14 10° NE
Cosmos 968 Rocket 3.4 22:18:13 10° NNW 22:23:26 84° ENE 22:26:24 26° SSE
Cosmos 2322 4.2 22:22:28 21° SSE 22:25:45 39° ESE 22:31:01 10° NE
NOAA 11 4.3 22:24:37 17° S 22:28:51 74° WSW 22:34:22 10° NNW
YAOGAN 11 4.3 22:27:48 22° S 22:30:35 68° WSW 22:34:56 10° NNW
ASTEX 1 4.5 22:30:23 25° ESE 22:31:55 30° ENE 22:36:13 10° NNE
Okean 1-7 3.5 22:32:09 34° SE 22:33:13 41° E 22:37:23 10° NNE
Cosmos 2266 Rocket 4.0 22:27:47 10° N 22:34:04 87° E 22:38:21 22° S
Cosmos 1782 4.0 22:34:53 25° E 22:34:53 25° E 22:38:04 10° NNE
SL-16 R/B 2.5 22:30:28 10° SW 22:36:08 72° WNW 22:41:50 10° NNE
Cosmos 1703 Rocket 3.5 22:34:29 30° SSE 22:36:33 65° E 22:40:57 10° NNE
SPOT 5 2.9 22:34:04 24° S 22:37:01 75° WSW 22:41:42 10° NNW
Cosmos 2221 Rocket 3.7 22:37:29 37° SE 22:38:49 52° E 22:43:07 10° NNE
CZ-4C R/B 3.7 22:33:02 10° NW 22:39:17 40° NNE 22:44:54 16° E
ATLAS 5 CENTAUR R/B 2.6 22:38:21 10° NW 22:44:11 65° SW 22:47:28 29° SSE
Cosmos 2333 Rocket 4.0 22:46:51 14° E 22:46:51 14° E 22:48:56 10° ENE
Cosmos 1633 4.0 22:43:48 10° NNE 22:46:50 25° ENE 22:46:50 25° ENE
Nimbus 7 Rocket 4.3 22:42:14 10° NNE 22:48:10 71° ESE 22:52:10 22° S
Meteor 1-26 Rocket 4.3 22:48:41 15° SSW 22:53:25 83° W 22:59:16 10° N
Cosmos 2278 Rocket 3.3 22:48:31 10° NNW 22:53:37 33° NE 22:56:09 23° E
CARTOSAT-1 3.9 22:52:49 43° ESE 22:53:44 52° ENE 22:57:57 10° N
SPOT 1/Viking Rocket 3.6 22:52:06 31° S 22:54:41 75° WSW 22:59:56 10° NNW
Cosmos 2237 Rocket 4.2 22:56:36 12° E 22:56:36 12° E 22:57:40 10° ENE
ARGOS 3.6 22:53:21 24° S 22:56:33 57° W 23:01:52 10° NNW
Atlas Centaur 2 4.5 22:56:46 10° SSW 22:59:34 16° S 22:59:34 16° S
Cosmos 1844 Rocket 2.6 22:59:57 10° NNW 23:05:34 75° ENE 23:07:24 43° SE
Cosmos 2084 4.4 23:03:00 10° NNW 23:06:29 32° NE 23:07:20 29° ENE
PSLV R/B 4.4 23:13:04 35° N 23:13:04 35° N 23:14:55 10° N
Cosmos 1602 4.5 23:09:55 10° N 23:13:17 40° ENE 23:13:17 40° ENE
Meteor 1-11 Rocket 3.9 23:13:53 10° N 23:19:19 55° ENE 23:20:33 45° ESE
Meteor 1-10 Rocket 4.3 23:17:48 44° SSE 23:19:36 67° E 23:25:27 10° NNE
CZ-4B R/B 4.5 23:16:11 10° NNE 23:20:33 82° ESE 23:21:10 65° S
SeaSat 1 3.9 23:19:46 21° SW 23:21:47 27° WSW 23:26:00 10° NW
Cosmos 1777 Rocket 4.2 23:16:35 10° NNW 23:21:50 64° WSW 23:23:17 45° SSW
H-2A R/B 2.1 23:21:27 59° SSW 23:22:04 69° WSW 23:26:25 10° NNW
Cosmos 2219 Rocket 2.8 23:27:00 36° E 23:27:00 36° E 23:31:40 10° NE
Cosmos 1536 4.0 23:24:10 10° N 23:27:30 32° ENE 23:27:30 32° ENE
Landsat 7 4.3 23:29:02 40° SSW 23:30:17 52° W 23:34:57 10° NNW
Abrixas rocket 4.3 23:29:34 10° W 23:30:46 21° W 23:30:46 21° W
S3M 4.0 23:36:14 50° SE 23:37:32 62° E 23:43:39 10° NNE
DMSP B5D2-2 4.1 23:32:26 10° NNE 23:37:44 82° WNW 23:39:21 46° SSW
Okean 2 Rocket 4.2 23:33:38 10° NNW 23:37:51 38° W 23:38:59 33° SW
CZ-4C R/B 3.6 23:39:35 59° NNE 23:39:35 59° NNE 23:42:47 10° N
Cosmos 2237 4.2 23:37:21 35° SSW 23:39:53 87° WNW 23:45:40 10° NNE
NOSS 3-1 (C) 3.9 23:43:38 40° ESE 23:43:38 40° ESE 23:49:01 10° NE
Iridium 4 Rocket 3.1 23:40:14 10° N 23:44:04 65° NE 23:44:04 65° NE
Cosmos 2263 Rocket 4.5 23:41:56 10° WNW 23:44:46 14° W 23:47:36 10° SW
Spot 4 3.6 23:44:31 76° SSE 23:44:54 90° E 23:49:43 10° NNW
Terra 2.2 23:44:38 47° SW 23:45:24 52° W 23:50:05 10° NNW
USA 229 DEB 3.6 23:39:03 12° SW 23:45:31 86° SE 23:52:33 10° NE
USA 229 3.6 23:39:21 13° SW 23:45:37 85° SE 23:52:38 10° NE
Cosmos 1300 Rocket 3.6 23:42:28 10° N 23:46:35 71° NE 23:46:35 71° NE
H-2A R/B 3.3 23:45:19 26° SW 23:46:59 32° W 23:51:26 10° NNW
IGS 5A 4.1 23:48:08 47° WSW 23:48:13 47° W 23:52:16 10° NNW
COSMOS 2428 2.6 23:46:58 51° SSW 23:48:30 86° ESE 23:54:16 10° NNE
CZ-4 R/B 3.7 23:46:34 10° NNE 23:51:21 88° ESE 23:51:39 79° S
Cosmos 2322 Rocket 4.4 23:49:12 10° W 23:53:43 24° NW 23:58:18 10° N
